TimeMST,TemperatureF,Dew PointF,Humidity,Sea Level PressureIn,VisibilityMPH,Wind Direction,Wind SpeedMPH,Gust SpeedMPH,PrecipitationIn,Events,Conditions,WindDirDegrees,DateUTC
12:15 AM,28.4,23.0,80,30.04,10.0,West,5.8,-,N/A,,Overcast,280,2014-02-12 07:15:00
12:35 AM,26.6,21.2,80,30.04,10.0,West,6.9,-,N/A,,Mostly Cloudy,260,2014-02-12 07:35:00
12:55 AM,26.6,23.0,86,30.04,10.0,WSW,8.1,-,N/A,,Mostly Cloudy,250,2014-02-12 07:55:00
1:15 AM,26.6,23.0,86,30.04,10.0,SW,8.1,-,N/A,,Mostly Cloudy,230,2014-02-12 08:15:00
1:35 AM,23.0,19.4,86,30.04,10.0,SSW,10.4,-,N/A,,Scattered Clouds,210,2014-02-12 08:35:00
1:55 AM,23.0,21.2,93,30.03,10.0,SSW,11.5,-,N/A,,Clear,210,2014-02-12 08:55:00
2:15 AM,24.8,21.2,86,30.02,10.0,SW,13.8,19.6,N/A,,Clear,220,2014-02-12 09:15:00
2:35 AM,23.0,21.2,93,30.02,10.0,SW,12.7,-,N/A,,Clear,220,2014-02-12 09:35:00
2:55 AM,23.0,21.2,93,30.01,10.0,SSW,15.0,-,N/A,,Clear,210,2014-02-12 09:55:00
3:15 AM,24.8,21.2,86,30.01,10.0,SSW,13.8,-,N/A,,Clear,210,2014-02-12 10:15:00
3:35 AM,23.0,21.2,93,30.01,10.0,SW,12.7,-,N/A,,Clear,220,2014-02-12 10:35:00
3:55 AM,21.2,19.4,93,30.00,10.0,SSW,10.4,-,N/A,,Clear,210,2014-02-12 10:55:00
4:15 AM,21.2,19.4,93,29.99,10.0,SW,8.1,-,N/A,,Clear,230,2014-02-12 11:15:00
4:35 AM,21.2,19.4,93,29.98,10.0,SSW,10.4,-,N/A,,Clear,210,2014-02-12 11:35:00
4:55 AM,23.0,21.2,93,29.97,10.0,SSW,13.8,-,N/A,,Clear,210,2014-02-12 11:55:00
5:15 AM,23.0,21.2,93,29.96,10.0,SSW,12.7,-,N/A,,Clear,200,2014-02-12 12:15:00
5:35 AM,23.0,19.4,86,29.95,10.0,SSW,10.4,-,N/A,,Clear,210,2014-02-12 12:35:00
5:55 AM,23.0,19.4,86,29.94,10.0,SSW,11.5,-,N/A,,Clear,210,2014-02-12 12:55:00
6:15 AM,24.8,21.2,86,29.92,10.0,SW,9.2,-,N/A,,Clear,220,2014-02-12 13:15:00
6:35 AM,26.6,19.4,74,29.90,10.0,SSW,15.0,-,N/A,,Clear,200,2014-02-12 13:35:00
6:55 AM,28.4,19.4,69,29.89,10.0,SSW,16.1,23.0,N/A,,Clear,210,2014-02-12 13:55:00
7:15 AM,28.4,19.4,69,29.88,10.0,SSW,19.6,23.0,N/A,,Clear,200,2014-02-12 14:15:00
7:35 AM,28.4,19.4,69,29.86,10.0,SW,16.1,-,N/A,,Clear,220,2014-02-12 14:35:00
7:55 AM,30.2,21.2,69,29.84,10.0,SSW,17.3,-,N/A,,Clear,200,2014-02-12 14:55:00
8:15 AM,30.2,21.2,69,29.83,10.0,SSW,20.7,26.5,N/A,,Clear,200,2014-02-12 15:15:00
8:35 AM,32.0,21.2,64,29.82,10.0,SSW,20.7,24.2,N/A,,Clear,200,2014-02-12 15:35:00
8:55 AM,32.0,21.2,64,29.82,10.0,SSW,18.4,27.6,N/A,,Clear,200,2014-02-12 15:55:00
9:15 AM,32.0,21.2,64,29.79,10.0,SSW,20.7,29.9,N/A,,Clear,200,2014-02-12 16:15:00
9:35 AM,32.0,21.2,64,29.76,10.0,SSW,19.6,32.2,N/A,,Clear,200,2014-02-12 16:35:00
9:55 AM,32.0,21.2,64,29.75,10.0,SSW,25.3,34.5,N/A,,Clear,200,2014-02-12 16:55:00
10:15 AM,32.0,21.2,64,29.73,10.0,SSW,21.9,28.8,N/A,,Clear,200,2014-02-12 17:15:00
10:35 AM,32.0,23.0,69,29.72,7.0,SSW,26.5,35.7,N/A,,Clear,200,2014-02-12 17:35:00
10:55 AM,32.0,23.0,69,29.70,7.0,South,24.2,35.7,N/A,,Clear,190,2014-02-12 17:55:00
11:15 AM,33.8,23.0,65,29.68,10.0,SSW,27.6,34.5,N/A,,Clear,200,2014-02-12 18:15:00
11:35 AM,33.8,23.0,65,29.67,10.0,SSW,23.0,33.4,N/A,,Clear,200,2014-02-12 18:35:00
11:55 AM,35.6,23.0,60,29.66,10.0,SSW,18.4,32.2,N/A,,Scattered Clouds,200,2014-02-12 18:55:00
12:15 PM,35.6,24.8,65,29.62,10.0,SSW,23.0,33.4,N/A,,Clear,210,2014-02-12 19:15:00
12:35 PM,35.6,24.8,65,29.59,10.0,SSW,20.7,32.2,N/A,,Clear,210,2014-02-12 19:35:00
12:55 PM,35.6,26.6,70,29.57,10.0,SW,21.9,31.1,N/A,,Clear,220,2014-02-12 19:55:00
1:15 PM,35.6,26.6,70,29.55,10.0,SSW,19.6,29.9,N/A,,Clear,210,2014-02-12 20:15:00
1:35 PM,37.4,26.6,65,29.56,10.0,SW,26.5,33.4,N/A,,Scattered Clouds,220,2014-02-12 20:35:00
1:55 PM,37.4,26.6,65,29.57,10.0,SSW,19.6,31.1,N/A,,Overcast,210,2014-02-12 20:55:00
2:15 PM,37.4,26.6,65,29.53,10.0,South,19.6,24.2,N/A,,Mostly Cloudy,190,2014-02-12 21:15:00
2:35 PM,37.4,26.6,65,29.53,10.0,SSW,16.1,21.9,N/A,,Scattered Clouds,210,2014-02-12 21:35:00
2:55 PM,39.2,26.6,61,29.54,10.0,SSW,16.1,23.0,N/A,,Clear,210,2014-02-12 21:55:00
3:15 PM,39.2,26.6,61,29.53,10.0,SW,20.7,26.5,N/A,,Clear,220,2014-02-12 22:15:00
3:35 PM,41.0,26.6,57,29.53,10.0,SSW,18.4,27.6,N/A,,Clear,210,2014-02-12 22:35:00
3:55 PM,41.0,26.6,57,29.53,10.0,SW,15.0,21.9,N/A,,Clear,230,2014-02-12 22:55:00
4:15 PM,39.2,26.6,61,29.53,10.0,SSW,15.0,20.7,N/A,,Clear,210,2014-02-12 23:15:00
4:35 PM,41.0,26.6,57,29.53,10.0,SW,16.1,24.2,N/A,,Clear,220,2014-02-12 23:35:00
4:55 PM,41.0,26.6,57,29.53,10.0,SW,13.8,20.7,N/A,,Clear,220,2014-02-12 23:55:00
5:15 PM,39.2,26.6,61,29.54,10.0,SSW,15.0,-,N/A,,Clear,210,2014-02-13 00:15:00
5:35 PM,39.2,26.6,61,29.54,10.0,SSW,13.8,19.6,N/A,,Clear,210,2014-02-13 00:35:00
5:55 PM,39.2,26.6,61,29.55,10.0,SW,13.8,-,N/A,,Clear,220,2014-02-13 00:55:00
6:15 PM,39.2,26.6,61,29.55,10.0,SSW,15.0,23.0,N/A,,Clear,210,2014-02-13 01:15:00
6:35 PM,39.2,26.6,61,29.55,10.0,SW,16.1,19.6,N/A,,Clear,220,2014-02-13 01:35:00
6:55 PM,41.0,26.6,57,29.56,10.0,SW,13.8,-,N/A,,Clear,220,2014-02-13 01:55:00
7:15 PM,39.2,26.6,61,29.56,10.0,SSW,15.0,21.9,N/A,,Clear,210,2014-02-13 02:15:00
7:35 PM,39.2,26.6,61,29.57,10.0,SSW,12.7,-,N/A,,Clear,210,2014-02-13 02:35:00
7:55 PM,39.2,24.8,56,29.57,10.0,SW,9.2,-,N/A,,Clear,220,2014-02-13 02:55:00
8:15 PM,41.0,23.0,49,29.58,10.0,WSW,11.5,-,N/A,,Scattered Clouds,240,2014-02-13 03:15:00
8:35 PM,41.0,23.0,49,29.59,10.0,WSW,12.7,-,N/A,,Mostly Cloudy,250,2014-02-13 03:35:00
8:55 PM,42.8,23.0,46,29.59,10.0,WSW,12.7,19.6,N/A,,Scattered Clouds,250,2014-02-13 03:55:00
9:15 PM,42.8,23.0,46,29.61,10.0,West,13.8,21.9,N/A,,Clear,280,2014-02-13 04:15:00
9:35 PM,44.6,23.0,43,29.62,10.0,West,19.6,27.6,N/A,,Clear,280,2014-02-13 04:35:00
9:55 PM,44.6,24.8,46,29.63,10.0,WNW,13.8,-,N/A,,Clear,290,2014-02-13 04:55:00
10:15 PM,44.6,24.8,46,29.64,10.0,WNW,12.7,20.7,N/A,,Clear,290,2014-02-13 05:15:00
10:35 PM,42.8,24.8,49,29.64,10.0,West,15.0,23.0,N/A,,Clear,280,2014-02-13 05:35:00
10:55 PM,42.8,26.6,53,29.65,10.0,West,12.7,24.2,N/A,,Clear,280,2014-02-13 05:55:00
11:15 PM,42.8,24.8,49,29.66,10.0,West,13.8,23.0,N/A,,Clear,280,2014-02-13 06:15:00
11:35 PM,41.0,24.8,53,29.67,10.0,West,11.5,16.1,N/A,,Clear,280,2014-02-13 06:35:00
11:55 PM,-9999,-9999,N/A,29.68,10.0,West,12.7,20.7,N/A,,Clear,280,2014-02-13 06:55:00